Weather History for Warrensburg, MO

Change the Weather History Date:

Thursday, April 10, 2014

  Actual Average (KSZL) Record (KSZL)
Temperature  
Mean Temperature - -  
Max Temperature - 62 °F 82 °F (2005)
Min Temperature - 42 °F 32 °F (1997)
Moisture  
Dew Point -    
Average Humidity    
Maximum Humidity    
Minimum Humidity    
Precipitation  
Precipitation 0.00 in - - ()
Sea Level Pressure  
Sea Level Pressure 29.85 in    
Wind  
Wind Speed 11 mph (WSW)    
Max Wind Speed 18 mph    
Max Gust Speed 24 mph    
Visibility 10 miles    
Events      
Averages and records for this station are not official NWS values.
T = Trace of Precipitation, MM = Missing Value Source: NWS Daily Summary

Daily Weather History Graph

Daily Weather History Graph

Search for Another Location

Airport:

Trip Planner

Search our weather history database for the weather conditions in past years. The results will help you decide how hot, cold, wet, or windy it might be!

Date:

Astronomy

Apr. 10, 2014 Rise Set
Actual Time 6:46 AM CDT 7:47 PM CDT
Civil Twilight 6:18 AM CDT 8:14 PM CDT
Nautical Twilight 5:46 AM CDT 8:47 PM CDT
Astronomical Twilight 5:13 AM CDT 9:20 PM CDT
Moon 3:34 PM CDT (4/10) 4:06 AM CDT (4/10)
Length of Visible Light 13h 55m
Length of Day
13h 01m
Waxing Gibbous, 80% of the Moon is Illuminated
Apr 10
Waxing Gibbous
Apr 15
Full
Apr 22
Last Quarter
Apr 29
New
May 6
First Quarter

Hourly Weather History & Observations

Time (CDT) Temp. Dew Point Humidity Pressure Visibility Wind Dir Wind Speed Gust Speed Precip Events Conditions
12:15 AM - - N/A% 29.80 in 10.0 mi South 15.0 mph 20.7 mph N/A   Clear
12:35 AM - - N/A% 29.80 in 10.0 mi South 16.1 mph 24.2 mph N/A   Clear
12:55 AM - - N/A% 29.80 in 10.0 mi South 13.8 mph 20.7 mph N/A   Clear
1:15 AM - - N/A% 29.79 in 10.0 mi South 13.8 mph 18.4 mph N/A   Clear
2:15 AM - - N/A% 29.78 in 10.0 mi South 12.7 mph 20.7 mph N/A   Clear
2:55 AM - - N/A% 29.77 in 10.0 mi South 13.8 mph 18.4 mph N/A   Clear
3:15 AM - - N/A% 29.77 in 10.0 mi South 13.8 mph 20.7 mph N/A   Clear
3:35 AM - - N/A% 29.76 in 10.0 mi South 13.8 mph 18.4 mph N/A   Clear
3:55 AM - - N/A% 29.75 in 10.0 mi South 12.7 mph 19.6 mph N/A   Clear
4:15 AM - - N/A% 29.75 in 10.0 mi South 10.4 mph 17.3 mph N/A   Clear
4:35 AM - - N/A% 29.75 in 10.0 mi South 12.7 mph 18.4 mph N/A   Clear
4:55 AM - - N/A% 29.74 in 10.0 mi South 10.4 mph - N/A   Clear
5:15 AM - - N/A% 29.74 in 10.0 mi South 9.2 mph 17.3 mph N/A   Clear
5:35 AM - - N/A% 29.73 in 10.0 mi South 10.4 mph - N/A   Clear
5:55 AM - - N/A% 29.73 in 10.0 mi South 8.1 mph - N/A   Clear
6:15 AM - - N/A% 29.73 in 10.0 mi South 9.2 mph - N/A   Clear
6:35 AM - - N/A% 29.73 in 10.0 mi South 9.2 mph - N/A   Clear
6:55 AM - - N/A% 29.74 in 10.0 mi South 9.2 mph - N/A   Clear
7:15 AM - - N/A% 29.75 in 10.0 mi SSW 11.5 mph 20.7 mph N/A   Clear
7:35 AM - - N/A% 29.80 in 10.0 mi SW 5.8 mph 9.2 mph N/A   Clear
7:55 AM - - N/A% 29.80 in 10.0 mi West 6.9 mph - N/A   Clear
8:15 AM - - N/A% 29.80 in 10.0 mi SSW 8.1 mph - N/A   Clear
8:35 AM - - N/A% 29.79 in 10.0 mi SSW 9.2 mph - N/A   Clear
8:55 AM - - N/A% 29.79 in 10.0 mi SW 10.4 mph - N/A   Clear
9:15 AM - - N/A% 29.79 in 10.0 mi SSW 10.4 mph - N/A   Clear
9:55 AM - - N/A% 29.81 in 10.0 mi SW 9.2 mph - N/A   Clear
10:15 AM - - N/A% 29.81 in 10.0 mi SW 18.4 mph 23.0 mph N/A   Clear
10:35 AM - - N/A% 29.82 in 10.0 mi SW 12.7 mph 20.7 mph N/A   Clear
10:55 AM - - N/A% 29.82 in 10.0 mi SW 16.1 mph - N/A   Clear
11:15 AM - - N/A% 29.82 in 10.0 mi SW 12.7 mph 19.6 mph N/A   Clear
11:35 AM - - N/A% 29.83 in 10.0 mi SW 11.5 mph - N/A   Clear
11:55 AM - - N/A% 29.82 in 10.0 mi WSW 8.1 mph - N/A   Clear
12:15 PM - - N/A% 29.83 in 10.0 mi SW 5.8 mph - N/A   Clear
1:15 PM - - N/A% 29.85 in 10.0 mi NW 8.1 mph - N/A   Clear
1:35 PM - - N/A% 29.85 in 10.0 mi NNW 9.2 mph - N/A   Clear
1:55 PM - - N/A% 29.87 in 10.0 mi North 3.5 mph - N/A   Clear
2:15 PM - - N/A% 29.85 in 10.0 mi North 6.9 mph - N/A   Clear
2:35 PM - - N/A% 29.88 in 10.0 mi NNW 5.8 mph - N/A   Clear
2:55 PM - - N/A% 29.87 in 10.0 mi North 9.2 mph - N/A   Clear
3:15 PM - - N/A% 29.88 in 10.0 mi NW 11.5 mph 17.3 mph N/A   Clear
3:35 PM - - N/A% 29.85 in 10.0 mi North 17.3 mph 20.7 mph N/A   Clear
3:55 PM - - N/A% 29.87 in 10.0 mi North 10.4 mph - N/A   Clear
4:15 PM - - N/A% 29.86 in 10.0 mi North 13.8 mph 19.6 mph N/A   Clear
4:55 PM - - N/A% 29.89 in 10.0 mi NNW 10.4 mph 20.7 mph N/A   Clear
5:15 PM - - N/A% 29.89 in 10.0 mi North 10.4 mph - N/A   Clear
5:55 PM - - N/A% 29.90 in 10.0 mi North 12.7 mph 18.4 mph N/A   Clear
6:15 PM - - N/A% 29.90 in 10.0 mi North 12.7 mph 17.3 mph N/A   Clear
6:35 PM - - N/A% 29.91 in 10.0 mi North 11.5 mph 17.3 mph N/A   Clear
6:55 PM - - N/A% 29.92 in 10.0 mi North 9.2 mph - N/A   Clear
7:15 PM - - N/A% 29.93 in 10.0 mi North 6.9 mph - N/A   Clear
7:35 PM - - N/A% 29.94 in 10.0 mi North 6.9 mph - N/A   Clear
7:55 PM - - N/A% 29.95 in 10.0 mi North 5.8 mph - N/A   Clear
8:15 PM - - N/A% 29.96 in 10.0 mi North 4.6 mph - N/A   Clear
8:55 PM - - N/A% 29.97 in 10.0 mi NNW 3.5 mph - N/A   Clear
9:15 PM - - N/A% 29.98 in 10.0 mi NNW 4.6 mph - N/A   Clear
9:35 PM - - N/A% 29.99 in 10.0 mi NNW 4.6 mph - N/A   Clear
9:55 PM - - N/A% 30.00 in 10.0 mi NNW 4.6 mph - N/A   Clear
10:15 PM - - N/A% 30.00 in 10.0 mi Calm Calm - N/A   Clear
10:35 PM - - N/A% 30.00 in 10.0 mi NNE 3.5 mph - N/A   Clear
10:55 PM - - N/A% 30.00 in 10.0 mi Calm Calm - N/A   Clear
11:15 PM - - N/A% 29.99 in 10.0 mi NE 3.5 mph - N/A   Clear
11:35 PM - - N/A% 30.00 in 10.0 mi North 3.5 mph - N/A   Clear
11:55 PM - - N/A% 30.00 in 10.0 mi Calm Calm - N/A   Clear